Wind_Speed
19 19 20 20 20 21 20 21 22 22 21 22 22 21 21 21 21 20 20 20 20 20 20 20 19 19 20 21 21 20 21 22 23 24 25 25 25 25 25 25 24 24 24
20 20 21 21 22 21 20 20 21 21 22 22 21 21 21 21 22 22 21 21 21 21 21 21 21 21 22 22 22 22 23 23 24 25 26 25 26 26 26 26 26 26 26
20 20 20 21 21 20 20 20 21 21 21 21 21 20 20 20 21 22 22 22 22 22 22 22 22 22 22 22 23 23 24 24 25 25 26 27 27 27 27 28 28 28 28
21 21 21 21 20 21 21 21 21 21 21 21 21 21 21 21 21 21 21 21 21 22 23 23 23 23 23 23 24 24 24 25 25 26 27 28 28 29 29 29 30 31 30
22 22 21 21 21 21 21 21 21 21 21 21 21 21 22 22 22 22 21 21 21 21 23 23 24 25 24 24 25 25 26 27 27 28 28 29 30 31 32 31 31 32 31
21 21 22 21 21 21 21 21 22 22 22 21 22 22 22 23 22 22 22 22 22 23 24 24 24 24 25 26 26 27 27 28 29 30 30 31 32 33 33 34 33 33 33
21 22 21 21 21 22 22 22 22 22 22 22 22 22 22 22 23 23 22 22 22 23 24 24 25 25 26 26 27 28 29 30 31 31 31 32 33 34 34 34 35 34 35
21 22 22 21 21 21 22 22 22 22 22 22 22 23 23 22 22 22 22 23 23 24 25 25 26 27 27 28 28 29 30 31 32 32 32 32 32 34 34 34 35 35 35
22 22 22 22 22 23 22 21 21 21 21 21 21 21 21 22 22 22 23 24 24 25 26 27 27 28 28 29 29 30 31 31 32 32 33 33 33 34 35 35 35 35 35
22 22 22 21 22 23 22 20 21 21 21 21 21 20 20 21 22 23 24 24 25 26 27 27 28 29 30 30 30 30 31 32 32 33 33 33 32 33 35 36 36 37 37
22 23 22 21 22 21 21 20 21 21 22 22 21 21 21 22 23 25 24 25 26 28 28 29 29 30 31 30 30 30 31 31 32 33 33 33 33 34 35 36 37 38 38
21 21 21 21 21 21 21 21 21 21 21 21 22 22 22 23 24 25 26 26 26 28 29 30 30 30 31 30 30 30 31 32 33 33 34 35 35 35 36 37 37 39 39
20 20 20 20 20 19 19 19 20 20 21 21 22 22 23 24 25 26 27 26 27 27 28 29 30 30 30 30 30 31 32 33 34 35 35 35 36 36 37 37 38 38 40
20 20 20 19 18 17 18 19 19 20 21 22 22 23 24 25 25 26 26 26 26 26 27 27 28 28 29 30 30 31 32 33 35 36 36 36 36 36 36 37 38 38 39
19 18 17 17 17 18 18 19 21 21 21 22 23 23 24 25 25 25 26 26 26 26 26 26 26 27 28 29 30 32 32 33 34 36 37 37 37 38 38 38 38 39 39
17 16 16 16 16 17 19 20 21 21 22 22 22 23 23 23 24 25 25 25 26 26 26 26 27 28 28 29 30 31 31 32 33 34 36 37 38 38 38 38 38 39 39
15 15 16 16 17 17 18 19 20 21 21 21 21 22 23 24 24 24 24 25 25 26 26 26 26 27 28 29 29 30 31 31 32 33 34 35 36 37 37 38 38 39 40
15 15 14 16 17 18 18 19 20 20 20 20 21 22 23 24 24 25 25 25 25 26 27 27 27 27 28 29 29 30 30 31 31 32 32 34 35 36 37 38 38 39 39
15 14 15 16 17 18 18 19 20 20 20 21 22 22 23 24 24 25 25 26 26 27 28 28 28 28 29 29 29 29 30 30 31 31 31 32 33 34 35 35 36 37 38
14 15 16 17 17 17 18 19 20 20 20 20 22 23 23 24 25 25 26 26 26 27 28 28 28 29 29 29 29 29 30 30 30 31 32 32 32 32 33 34 35 36 38
15 15 16 16 16 17 18 20 21 21 21 22 23 23 24 25 25 26 26 27 27 27 28 29 29 29 29 29 29 29 30 30 30 31 32 32 31 31 32 33 34 35 36
15 15 16 16 17 18 19 21 22 23 23 23 24 24 25 25 26 27 28 27 27 27 28 28 28 28 28 28 29 29 30 30 30 30 31 30 30 30 31 31 32 34 35
15 16 16 17 17 19 20 21 22 23 23 23 24 24 25 26 26 26 26 26 26 27 27 28 27 27 27 27 28 28 29 30 30 30 29 29 30 29 29 30 31 32 33
15 16 17 17 18 20 21 22 22 22 23 23 24 25 25 26 25 25 25 25 26 25 25 26 26 26 27 28 28 28 30 30 29 29 29 28 27 27 27 27 28 29 30
15 16 17 18 19 20 21 22 22 23 23 24 24 25 25 25 25 25 25 25 25 25 24 25 25 26 27 27 28 28 28 28 27 27 27 26 25 25 25 25 25 25 26
16 17 17 18 19 20 21 22 22 23 23 24 25 26 25 25 25 26 25 25 24 24 24 24 25 25 25 26 27 27 27 26 25 24 24 24 23 23 23 23 23 23 23
Wind_Direction
285 287 287 290 291 292 291 291 290 286 284 283 281 280 280 281 277 278 278 277 274 270 268 269 269 271 267 267 266 264 263 263 263 260 259 258 257 256 256 256 254 254 254
285 287 287 291 292 292 291 294 294 289 288 286 283 281 279 279 278 277 277 277 273 270 270 268 270 273 272 268 267 265 264 264 264 262 260 257 256 256 256 256 256 256 254
289 291 290 291 291 290 292 294 296 294 291 289 285 284 282 280 281 279 277 275 273 270 269 269 271 272 272 269 267 267 265 264 264 264 261 259 257 256 255 256 256 256 255
292 293 291 291 291 291 293 294 296 294 292 290 288 287 285 283 282 284 280 277 275 273 271 271 272 270 270 269 268 267 266 264 264 263 261 259 259 257 256 256 256 255 254
292 293 292 291 292 293 294 295 296 294 291 289 287 288 288 286 285 285 283 279 278 276 274 273 273 272 270 270 270 269 268 266 264 263 262 260 258 257 256 257 256 255 253
291 292 291 292 292 293 294 296 296 294 291 290 289 288 289 288 286 285 283 282 281 279 278 276 273 273 270 270 270 271 271 267 266 265 264 261 259 259 259 257 254 253 252
289 291 290 292 292 292 292 292 293 292 291 291 290 288 287 286 286 284 283 283 284 283 282 280 279 277 275 273 273 273 272 271 269 267 266 264 261 259 258 257 254 252 251
286 288 290 291 293 293 292 290 291 291 292 291 290 288 286 285 286 286 285 286 287 286 284 283 281 279 279 277 275 275 274 273 271 269 267 265 262 260 259 258 255 253 252
288 290 291 292 292 294 293 290 291 293 294 294 294 292 288 287 286 289 289 289 289 288 285 283 283 282 281 282 280 276 275 273 272 270 267 265 264 262 259 258 256 254 253
292 293 293 294 296 296 294 290 291 293 295 295 295 295 293 290 289 292 291 290 288 287 283 283 283 283 282 281 279 278 277 275 273 271 268 267 265 263 260 257 255 254 253
295 294 292 294 296 296 294 292 291 293 294 293 293 293 292 292 293 292 291 292 290 289 288 285 283 283 282 280 279 278 277 276 273 272 269 267 266 264 262 259 256 254 252
295 296 295 295 296 295 295 294 293 294 293 293 294 293 291 292 294 293 292 292 292 290 290 287 285 284 283 281 279 278 277 276 274 271 269 268 267 265 262 260 258 255 253
297 297 297 298 298 297 297 296 296 296 295 295 295 293 292 292 293 294 293 294 295 292 290 288 286 285 284 283 281 280 278 276 275 272 270 269 268 265 262 260 259 256 252
299 298 299 296 300 303 300 298 298 298 297 297 296 295 295 295 294 295 295 296 296 296 293 292 291 287 286 286 284 283 281 279 277 275 273 271 268 266 263 260 258 256 254
302 303 302 303 303 302 302 300 299 298 298 299 299 297 296 295 295 296 296 296 296 296 294 294 292 291 290 288 287 286 285 282 279 276 274 271 269 267 265 261 259 257 255
304 306 310 311 308 306 304 302 302 302 300 299 298 299 298 298 298 298 296 295 295 296 295 294 294 294 293 293 291 289 288 285 283 280 276 273 271 268 266 262 258 256 254
306 311 312 314 312 311 310 310 309 309 305 303 302 303 302 300 299 299 298 297 296 297 297 296 296 295 295 295 295 292 289 287 286 283 279 275 272 268 266 263 260 257 254
309 311 314 315 317 317 315 315 315 313 310 307 306 306 305 303 302 301 300 299 297 298 298 297 297 297 296 297 297 296 294 290 287 285 283 278 275 271 268 264 261 258 254
310 315 316 315 317 319 318 316 318 317 314 311 309 309 309 307 305 303 300 299 297 298 299 298 297 297 297 297 298 298 297 294 289 287 284 281 278 273 270 266 262 258 255
313 312 312 315 317 318 319 320 321 320 317 315 313 311 311 309 306 303 302 301 299 300 300 299 298 297 297 297 297 297 297 295 292 290 286 283 280 275 271 268 265 261 256
312 313 314 315 316 315 316 319 320 320 317 316 315 315 313 311 309 306 304 303 302 301 302 301 299 298 299 298 297 298 298 298 296 293 290 287 283 278 273 269 266 263 260
313 314 315 316 318 318 319 321 323 321 320 318 317 317 316 315 312 309 307 306 305 304 304 305 302 300 300 300 298 299 298 298 299 298 294 290 285 282 277 273 268 265 262
313 316 318 319 320 321 322 322 322 322 321 322 322 321 319 317 315 312 311 310 309 309 309 307 304 302 302 302 301 301 301 300 300 299 297 294 289 285 280 276 271 268 264
309 312 315 318 322 324 324 324 323 326 329 328 326 325 323 322 320 317 316 315 314 313 312 311 310 308 306 303 303 304 304 303 302 302 299 297 293 287 283 279 273 269 266
310 311 313 316 320 323 325 326 328 330 330 329 328 326 325 325 325 323 321 319 317 314 314 314 313 312 310 308 307 306 306 304 303 303 303 301 295 290 284 279 275 271 267
308 310 311 313 319 323 326 327 329 330 329 328 328 328 327 326 326 326 324 321 319 318 316 315 315 314 315 315 313 310 309 308 308 306 307 305 300 295 287 282 278 273 269
Height
5849 5849 5848 5847 5847 5846 5844 5844 5842 5841 5841 5840 5839 5839 5839 5839 5839 5838 5839 5839 5839 5839 5839 5839 5839 5840 5840 5841 5841 5841 5842 5843 5844 5845 5846 5847 5848 5849 5850 5852 5853 5855 5856
5845 5844 5844 5843 5842 5841 5840 5839 5838 5836 5836 5835 5834 5834 5834 5834 5834 5833 5834 5834 5834 5834 5834 5834 5834 5835 5835 5835 5835 5836 5836 5837 5838 5839 5840 5841 5842 5844 5845 5846 5848 5849 5851
5841 5840 5840 5839 5838 5836 5835 5834 5833 5832 5830 5830 5829 5829 5828 5828 5828 5827 5828 5828 5828 5828 5828 5829 5829 5829 5829 5829 5830 5830 5830 5831 5832 5833 5834 5835 5837 5838 5839 5841 5842 5843 5845
5836 5836 5835 5835 5833 5832 5831 5830 5828 5827 5826 5825 5824 5824 5823 5822 5822 5822 5822 5821 5821 5822 5822 5823 5823 5823 5823 5823 5823 5824 5824 5825 5825 5826 5827 5829 5830 5831 5832 5834 5835 5837 5838
5832 5831 5831 5830 5829 5828 5827 5825 5824 5823 5821 5820 5819 5818 5817 5817 5816 5816 5816 5816 5815 5815 5816 5816 5817 5816 5816 5817 5817 5817 5817 5818 5818 5819 5820 5821 5822 5823 5824 5826 5827 5829 5831
5828 5827 5826 5825 5824 5823 5822 5821 5819 5818 5816 5815 5814 5813 5812 5811 5810 5810 5810 5810 5810 5810 5810 5810 5810 5810 5810 5810 5810 5810 5810 5810 5810 5811 5812 5812 5814 5815 5816 5817 5819 5821 5823
5824 5823 5822 5821 5820 5819 5817 5816 5814 5812 5811 5810 5808 5807 5807 5806 5805 5805 5804 5804 5804 5804 5803 5802 5803 5803 5803 5803 5802 5802 5802 5802 5802 5802 5802 5803 5804 5805 5806 5808 5810 5812 5814
5819 5818 5817 5816 5814 5813 5812 5810 5808 5807 5806 5805 5803 5802 5801 5801 5799 5799 5798 5798 5798 5797 5796 5796 5795 5795 5795 5794 5794 5794 5794 5793 5793 5793 5793 5793 5794 5795 5796 5798 5800 5802 5804
5814 5813 5812 5810 5809 5808 5806 5805 5803 5802 5801 5799 5797 5796 5795 5795 5794 5793 5792 5791 5791 5790 5789 5788 5788 5787 5786 5786 5786 5785 5784 5784 5783 5783 5783 5783 5784 5785 5786 5788 5790 5792 5795
5809 5808 5806 5805 5804 5802 5801 5799 5798 5797 5795 5794 5793 5791 5790 5789 5787 5787 5786 5784 5783 5782 5781 5780 5779 5778 5777 5777 5776 5776 5775 5774 5773 5773 5773 5773 5774 5775 5776 5777 5779 5782 5785
5804 5802 5801 5800 5798 5797 5795 5794 5793 5791 5790 5788 5787 5786 5785 5783 5781 5780 5780 5778 5776 5774 5773 5772 5771 5770 5768 5767 5767 5766 5766 5764 5763 5763 5763 5764 5764 5764 5765 5767 5769 5771 5774
5799 5797 5796 5795 5793 5791 5790 5789 5787 5785 5784 5782 5781 5780 5778 5777 5775 5773 5772 5770 5769 5767 5765 5763 5762 5760 5759 5758 5757 5757 5755 5754 5753 5753 5753 5753 5753 5754 5755 5756 5758 5760 5762
5794 5793 5791 5790 5788 5786 5785 5783 5782 5780 5778 5776 5775 5773 5772 5770 5768 5766 5764 5762 5761 5759 5757 5755 5753 5751 5750 5749 5748 5747 5745 5744 5743 5743 5742 5742 5743 5743 5744 5745 5747 5749 5751
5790 5788 5786 5785 5783 5782 5780 5778 5776 5774 5772 5770 5768 5767 5765 5763 5761 5759 5757 5755 5753 5751 5748 5746 5745 5743 5741 5740 5739 5737 5735 5734 5733 5732 5731 5731 5731 5732 5733 5734 5736 5738 5740
5785 5783 5781 5780 5779 5777 5775 5773 5771 5769 5767 5764 5762 5760 5758 5756 5754 5752 5750 5748 5747 5744 5742 5739 5737 5735 5733 5731 5729 5728 5725 5724 5723 5721 5720 5720 5720 5720 5721 5722 5724 5726 5728
5780 5779 5777 5775 5774 5772 5770 5768 5765 5763 5761 5759 5757 5754 5752 5750 5748 5745 5743 5741 5739 5736 5734 5732 5730 5727 5725 5723 5721 5718 5716 5714 5712 5710 5709 5708 5708 5709 5709 5710 5712 5713 5716
5776 5775 5773 5771 5770 5767 5765 5763 5760 5758 5755 5753 5751 5749 5746 5744 5741 5739 5737 5735 5732 5729 5727 5725 5722 5720 5717 5715 5712 5709 5707 5705 5702 5700 5698 5697 5697 5697 5697 5698 5699 5701 5703
5773 5771 5769 5768 5766 5763 5761 5759 5756 5754 5751 5748 5746 5743 5741 5738 5735 5733 5730 5728 5725 5722 5720 5718 5715 5712 5709 5706 5703 5701 5698 5695 5693 5690 5688 5687 5686 5685 5685 5686 5687 5688 5691
5770 5768 5766 5764 5762 5760 5757 5755 5752 5749 5746 5743 5741 5738 5735 5732 5729 5727 5724 5721 5718 5715 5712 5710 5707 5704 5701 5698 5695 5692 5689 5686 5683 5681 5679 5677 5675 5675 5674 5674 5675 5676 5678
5766 5765 5763 5761 5759 5757 5754 5752 5748 5745 5742 5739 5736 5733 5730 5726 5723 5720 5717 5714 5711 5708 5705 5702 5699 5696 5693 5689 5686 5683 5680 5677 5674 5672 5669 5667 5665 5664 5663 5663 5664 5664 5666
5763 5761 5759 5758 5756 5753 5751 5748 5745 5741 5738 5735 5731 5728 5724 5720 5717 5713 5710 5707 5704 5700 5697 5694 5691 5688 5685 5681 5678 5675 5672 5669 5666 5662 5659 5657 5655 5654 5652 5652 5652 5652 5653
5760 5758 5756 5755 5753 5750 5747 5744 5741 5738 5734 5730 5726 5722 5718 5714 5711 5707 5703 5699 5696 5693 5689 5686 5682 5679 5676 5673 5670 5667 5663 5660 5657 5654 5650 5647 5645 5643 5642 5641 5641 5641 5642
5758 5756 5754 5752 5750 5747 5744 5740 5737 5733 5730 5726 5722 5717 5713 5709 5704 5700 5697 5693 5689 5685 5682 5679 5675 5671 5668 5666 5662 5659 5655 5651 5648 5644 5641 5638 5635 5633 5631 5631 5630 5630 5630
5755 5753 5751 5749 5746 5743 5740 5737 5733 5729 5725 5722 5718 5713 5708 5703 5699 5695 5691 5687 5683 5679 5676 5672 5669 5665 5661 5657 5654 5650 5646 5643 5639 5635 5631 5628 5626 5623 5622 5620 5619 5619 5619
5752 5750 5748 5745 5743 5740 5737 5733 5730 5726 5722 5718 5713 5709 5704 5699 5694 5690 5686 5682 5678 5674 5670 5666 5662 5658 5654 5650 5646 5642 5638 5634 5630 5626 5622 5619 5616 5614 5612 5610 5609 5609 5609
5748 5746 5744 5742 5739 5736 5733 5730 5726 5722 5718 5714 5709 5705 5700 5695 5690 5686 5681 5677 5673 5669 5665 5661 5657 5653 5649 5644 5639 5634 5630 5626 5622 5619 5615 5611 5608 5605 5604 5603 5601 5601 5601